Simultaneous Nadir Overpasses (SNOs) Predictions

Prediction of SNOs between LANDSAT-8 and NOAA-19 Satellite Orbit:

Table of predicted SNOs for the next 14.0 days since TLE Epoch: 11/22/2013
Index Date (LANDSAT-8) Time (LANDSAT-8) Lat,Lon (LANDSAT-8) SZA (LANDSAT-8 ) Date (NOAA-19) Time (NOAA-19) Lat,Lon (NOAA-19) SZA (NOAA-19 ) Distance(km) Time Diff (sec)
1 11/24/2013 13:53:39 71.24, -29.98 91.79 11/24/2013 13:53:20 71.25, -29.92 91.81 2.81 19
2 11/24/2013 14:43:10 -71.08, 137.39 88.37 11/24/2013 14:44:23 -71.08, 137.61 88.36 7.81 73
3 11/26/2013 18:37:53 71.25,-101.02 92.22 11/26/2013 18:37:29 71.26,-100.94 92.23 3.12 24
4 11/26/2013 19:27:23 -71.14, 66.44 87.88 11/26/2013 19:28:33 -71.14, 66.49 87.88 1.93 70
5 11/28/2013 23:22:06 71.30,-172.01 92.66 11/28/2013 23:21:38 71.27,-171.98 92.63 3.00 28
6 11/29/2013 00:11:37 -71.14, -4.63 87.50 11/29/2013 00:12:42 -71.16, -4.56 87.48 3.45 65
7 12/01/2013 04:06:19 71.32, 116.97 93.04 12/01/2013 04:05:47 71.30, 116.95 93.02 2.72 32
8 12/01/2013 04:55:50 -71.17, -75.65 87.12 12/01/2013 04:56:51 -71.20, -75.64 87.09 3.30 61
9 12/03/2013 08:50:32 71.33, 45.92 93.37 12/03/2013 08:49:56 71.34, 45.87 93.38 2.26 36
10 12/03/2013 09:40:03 -71.18,-146.69 86.79 12/03/2013 09:40:59 -71.20,-146.66 86.76 2.74 56
11 12/05/2013 13:34:45 71.31, -25.16 93.64 12/05/2013 13:34:04 71.34, -25.15 93.67 2.81 41
12 12/05/2013 14:24:15 -71.22, 142.32 86.46 12/05/2013 14:25:07 -71.21, 142.30 86.46 0.79 52
